User: anonymous   Login
Location: Launois
(49.6535°N, 4.5395°E)
Time: 18:50:19
(UTC+00:00)
Language:

Cosmos 2082 Rocket - Orbit

View from above orbital plane
View from above orbital plane
View from above satellite
View from above satellite

Ground track
Ground track

The orbit data is extracted from the following two-line orbital elements,

1 20625U 90046B   24199.21340682 -.00000147  00000-0 -51666-4 0  9997
2 20625  71.0002 118.8775 0012642 145.0289 215.1667 14.14848443763452
Epoch (UTC): 17 July 2024 05:07:18
Eccentricity: 0.0012642
inclination: 71.0002°
perigee height: 834 km
apogee height: 852 km
right ascension of ascending node: 118.8775°
argument of perigee: 145.0289°
revolutions per day: 14.14848443
mean anomaly at epoch: 215.1667°
orbit number at epoch: 76345

The dashed part of the orbit path shows where the satellite is in the earth's shadow,  

DLR